Regional Weather Roundup
Issued by NWS

Home | Current Version | Previous Version | Graphics & Text | Print | Product List | Glossary On
Versions: 1 2 3 4 5 6 7 8 9 10 11 12 13 14 15 16 17 18 19 20 21 22 23 24 25 26 27 28 29 30 31 32 33 34 35 36 37 38 39 40 41 42 43 44 45 46 47 48 49 50
000
ASUS43 KIND 271209
RWRIN

WEATHER ROUNDUP FOR INDIANA
NATIONAL WEATHER SERVICE INDIANAPOLIS IN
800 AM EDT FRI MAR 27 2015

NOTE: "FAIR" INDICATES FEW OR NO CLOUDS BELOW 12,000 FEET WITH NO
SIGNIFICANT WEATHER AND/OR OBSTRUCTIONS TO VISIBILITY.

* - STATION DOES NOT REPORT WEATHER SUCH AS PRECIPITATION OR FOG.

+ - STATION NOT QUALITY CONTROLLED BY THE NATIONAL WEATHER SERVICE.
    USE DATA WITH CAUTION...ESPECIALLY DEWPOINT AND RELATIVE
    HUMIDITY OBSERVATIONS.

INZ001>003-010>013-019-020-271300-
NORTHWEST INDIANA

CITY           SKY/WX    TMP DP  RH WIND       PRES   REMARKS
GARY /AIRPORT/ LGT SNOW  28  19  69 N18G32    30.12R WCI  16
KNOX *+          N/A     27   7  43 N14       30.07R WCI  15
LA PORTE +     FLURRIES  27  20  76 N14       30.08R WCI  15
6HR MIN TEMP:  27; 6HR MAX TEMP:  32;

MICHIGAN CITY+ LGT SNOW  27  18  69 N10G18    30.10R WCI  17
MONTICELLO +   CLEAR     26  21  84 N8        30.06R WCI  17
6HR MIN TEMP:  26; 6HR MAX TEMP:  31;

RENSSELAER +   FLURRIES  28  27  93 N6        30.09R WCI  22
VALPARAISO     LGT SNOW  25  19  78 N13       30.09R WCI  14
6HR MIN TEMP:  25; 6HR MAX TEMP:  31; 6HR PCP: TRACE;


$$

LMZ046-743>745-271300-
SOUTHERN LAKE MICHIGAN

STATION/POSITION TIME  TEMP WIND        PRES
                       AIR  DIR/SP/G
                 (UTC) (F)  (DEG/KT/KT) (MB)
BURNS HARBOR     1200   27   20/ 21/ 25 1019.3R
MICHIGAN CITY    1200   25   10/ 24/ 28   N/A

$$

INZ004-005-014>016-021>024-271300-
NORTH CENTRAL INDIANA

CITY           SKY/WX    TMP DP  RH WIND       PRES   REMARKS
ELKHART        CLOUDY    23   9  54 N8        30.08R WCI  14
GOSHEN         CLOUDY    24  13  62 N13       30.05R WCI  12
6HR MIN TEMP:  24; 6HR MAX TEMP:  31;

LOGANSPORT +   CLEAR     27  21  80 N8        30.06R WCI  18
PERU/GRISSOM   PTCLDY    26  20  80 N6        30.03R WCI  19
6HR MIN TEMP:  26; 6HR MAX TEMP:  31;

ROCHESTER +    CLOUDY    30  23  74 N9        30.06R WCI  22
SOUTH BEND     CLOUDY    23  14  68 N12       30.08R WCI  12
6HR MIN TEMP:  23; 6HR MAX TEMP:  31;

WARSAW +       CLOUDY    27  16  63 N7        30.05R WCI  19

$$

INZ006>009-017-018-025>027-271300-
NORTHEAST INDIANA

CITY           SKY/WX    TMP DP  RH WIND       PRES   REMARKS
ANGOLA *+      PTCLDY    21  12  68 N8        30.02R WCI  12
AUBURN +       PTCLDY    27  12  54 N12G18    30.03R WCI  16
FORT WAYNE     MOCLDY    26  15  63 N17       30.03R WCI  13
6HR MIN TEMP:  26; 6HR MAX TEMP:  30; 6HR PCP: TRACE;

HUNTINGTON +   CLOUDY    27  15  62 N14       30.03R WCI  16
6HR MIN TEMP:  25; 6HR MAX TEMP:  29;


$$

INZ028-029-035-036-043>045-051>053-271300-
WEST CENTRAL INDIANA

CITY           SKY/WX    TMP DP  RH WIND       PRES   REMARKS
CRAWFORDSVL +  MOCLDY    28  20  73 MISG      30.05R
6HR MIN TEMP:  27; 6HR MAX TEMP:  29;

GREENCASTLE +  CLOUDY    30  21  69 N8        30.04S WCI  23
LAFAYETTE      PTCLDY    27  21  78 N8        30.07R WCI  19
6HR MIN TEMP:  27; 6HR MAX TEMP:  30;

TERRE HAUTE    CLOUDY    32  26  78 N8        30.06R WCI  25
6HR MIN TEMP:  30; 6HR MAX TEMP:  33;


$$

INZ030>032-037>040-046>048-054>057-064-065-271300-
CENTRAL INDIANA

CITY           SKY/WX    TMP DP  RH WIND       PRES   REMARKS
CP ATTERBURY + CLOUDY    32  27  80 N3        30.03S
COLUMBUS       PTCLDY    30  25  80 N7        30.03R WCI  23
FISHERS *+     MOCLDY    28  27  93 NW5       30.02S WCI  23
FRANKFORT +    MOCLDY    29  26  86 NW8       30.06R WCI  22
6HR MIN TEMP:  29; 6HR MAX TEMP:  32;

GREENWOOD *+   CLOUDY    32  23  69 N5        30.03R WCI  27
INDIANAPOLIS   MOCLDY    31  22  69 N7        30.02R WCI  24
6HR MIN TEMP:  28; 6HR MAX TEMP:  32;

-EAGLE CREEK   MOCLDY    30  23  75 N6        30.02S WCI  24
6HR MIN TEMP:  29; 6HR MAX TEMP:  32;

KOKOMO *+        N/A     27  19  74 N9        30.04R WCI  17
6HR MIN TEMP:  27; 6HR MAX TEMP:  30;

MARION +       FAIR      28  23  79 N9        30.03R WCI  20
MT COMFORT *+  MOCLDY    30  19  64 NW7       30.02S WCI  23
SHELBYVILLE    MOCLDY    32  25  75 N8        30.01S WCI  25
6HR MIN TEMP:  30; 6HR MAX TEMP:  36;

ZIONSVILLE +   PTCLDY    30  23  75 N10       30.03S WCI  21
6HR MIN TEMP:  28; 6HR MAX TEMP:  31;


$$

INZ033-034-041-042-049-050-058-059-271300-
EAST CENTRAL INDIANA

CITY           SKY/WX    TMP DP  RH WIND       PRES   REMARKS
MUNCIE         PTCLDY    30  24  78 N12       30.01R WCI  20
6HR MIN TEMP:  30; 6HR MAX TEMP:  33;


$$

INZ060-061-067>069-081>083-085>088-271300-
SOUTHWEST INDIANA

CITY           SKY/WX    TMP DP  RH WIND       PRES   REMARKS
EVANSVILLE     CLOUDY    36  29  75 N7        30.03S
6HR MIN TEMP:  31; 6HR MAX TEMP:  38;

HUNTINGBURG *+ PTCLDY    34  27  75 N6        30.03R WCI  29
6HR MIN TEMP:  28; 6HR MAX TEMP:  34;

WASHINGTON +   CLOUDY    33  27  80 NE7       30.03S WCI  27
6HR MIN TEMP:  31; 6HR MAX TEMP:  34;


$$

INZ062-063-066-070>080-084-089>092-271300-
SOUTH CENTRAL AND SOUTHEAST INDIANA

CITY           SKY/WX    TMP DP  RH WIND       PRES   REMARKS
BEDFORD +      MOCLDY    30  27  86 N6        30.02S WCI  24
BLOOMINGTON    CLOUDY    30  26  85 N6        30.02S WCI  24
6HR MIN TEMP:  27; 6HR MAX TEMP:  33;

NORTH VERNON + CLEAR     30  30 100 N6        30.01R WCI  24
SEYMOUR +      PTCLDY    32  27  80 N8        30.02S WCI  25

$$



USA.gov is the U.S. government's official web portal to all federal, state and local government web resources and services.